GFSFLT2_925_spd_060.txt.gz
Wind_Speed
23 23 28 29 33 35 34 33 29 35 36 34 32 30 32 36 37 34 30 28 32 33 31 29 27 26 26 25 24 23 25 25
27 31 32 32 31 36 37 32 31 34 37 37 36 34 33 35 36 33 32 31 33 33 29 27 25 24 23 23 23 22 23 22
27 34 42 40 43 42 45 41 28 34 37 36 36 34 33 35 35 34 33 32 31 29 26 24 23 22 20 20 21 21 21 21
26 33 38 41 39 41 45 39 38 31 35 37 36 34 33 35 34 33 31 31 30 29 28 26 24 21 19 18 18 19 19 19
28 35 35 31 35 35 34 32 37 38 39 38 36 35 34 34 34 35 31 31 30 28 25 25 22 19 17 16 16 17 17 17
33 36 29 36 37 38 34 33 35 33 35 38 37 35 34 34 34 34 33 28 27 26 24 22 19 17 14 13 13 14 15 16
31 37 38 40 35 33 35 32 37 34 33 37 37 36 35 33 31 31 31 26 23 21 21 20 18 15 13 11 10 12 12 13
24 30 36 34 37 32 33 36 40 38 35 32 36 36 35 33 30 26 27 23 20 19 18 16 13 12 13 10 10 10 9 9
24 26 32 32 33 25 27 34 37 38 40 37 36 35 35 33 31 26 23 22 19 18 17 15 14 12 10 10 9 9 8 7
22 24 28 29 30 21 24 33 33 36 37 36 35 37 33 31 29 26 22 20 18 16 17 15 12 12 11 10 10 10 9 8
19 24 28 30 28 24 25 26 31 34 35 34 38 35 32 28 25 24 22 19 17 17 15 14 14 12 11 10 10 10 10 10
20 22 27 31 27 30 25 29 28 32 36 42 35 33 28 25 24 21 19 18 18 18 15 15 15 14 12 12 12 14 14 15
21 24 23 30 34 29 24 24 26 26 27 29 27 26 25 24 23 17 20 20 22 18 17 17 19 15 13 13 15 17 19 20
18 22 26 26 28 26 25 26 27 25 25 26 26 20 16 18 16 16 17 18 19 15 18 21 21 19 10 3 2 8 22 24
20 22 28 29 30 31 22 20 18 24 27 25 29 23 19 19 16 20 16 19 14 17 21 23 24 22 22 9 1 4 1 10
21 24 27 31 33 30 25 20 17 19 34 28 30 28 27 18 19 18 18 18 18 20 21 24 25 23 20 21 16 6 3 2
22 24 25 27 35 31 31 28 24 21 29 34 33 35 23 23 23 22 19 21 23 21 23 27 28 28 24 12 21 13 11 4
24 27 29 30 35 35 40 36 34 31 27 29 38 42 34 29 26 25 25 26 26 25 28 28 27 30 30 27 21 11 15 9
32 30 28 33 34 36 38 38 39 36 35 32 32 35 37 34 30 27 28 30 29 31 28 29 34 29 32 31 30 33 28 20
31 31 30 32 35 36 38 37 37 39 39 39 38 38 40 37 32 29 29 29 31 35 31 36 33 33 32 31 33 31 27 22

GFSFLT2_925_spd_063.txt.gz
Wind_Speed
33 34 30 26 29 29 32 37 38 40 39 40 44 39 35 32 31 31 32 33 33 32 31 30 29 28 27 26 25 25 22 22
25 34 27 27 32 33 35 35 40 41 41 38 40 39 36 32 30 28 32 34 32 31 31 29 28 27 26 25 24 23 20 20
28 29 34 36 38 38 37 38 35 38 39 38 38 37 37 31 25 28 32 34 32 30 29 28 27 25 23 23 21 16 17 17
24 33 37 41 42 39 35 30 32 31 35 37 33 38 39 27 29 30 32 34 31 29 28 28 24 20 21 20 15 16 14 15
22 16 36 27 40 42 40 36 34 33 37 40 37 38 38 34 32 30 32 32 25 26 27 21 21 20 18 16 19 14 13 14
20 34 32 34 33 42 37 28 38 32 31 39 39 38 36 37 34 31 30 28 28 24 24 24 22 20 19 19 17 14 13 13
21 32 33 31 37 38 34 28 32 33 33 39 40 40 39 36 34 31 31 30 30 29 27 24 21 19 17 17 17 15 14 12
28 25 24 31 32 35 35 26 34 33 31 38 39 41 41 38 36 32 31 28 27 27 25 23 18 17 16 14 15 15 14 13
25 26 25 29 29 30 27 30 38 36 32 36 39 40 39 36 36 33 30 27 24 24 23 21 18 15 14 13 13 14 13 13
25 25 27 32 27 31 28 32 36 36 29 37 39 39 37 38 36 34 29 26 24 24 23 19 17 15 14 13 14 13 13 12
23 26 28 34 32 26 24 28 35 38 33 29 33 36 37 34 33 32 28 26 22 22 20 17 17 16 15 13 13 12 12 14
24 27 29 26 31 23 30 23 27 36 40 40 33 35 33 32 30 27 27 27 23 22 21 19 18 15 11 13 14 14 15 16
22 26 29 32 32 28 30 28 29 32 43 43 40 36 33 30 28 26 25 23 24 22 18 19 17 17 11 7 11 16 18 18
20 24 29 31 34 27 31 27 20 31 33 39 38 34 31 30 29 27 23 25 20 24 22 18 13 17 8 4 3 7 18 22
16 21 26 30 30 27 25 24 24 24 28 32 35 32 35 29 27 23 27 26 21 25 24 23 15 18 21 7 3 5 3 6
18 19 25 30 34 33 36 29 24 23 30 31 35 34 32 25 20 17 20 17 17 17 17 23 18 13 16 24 17 4 4 4
19 20 21 28 34 35 30 24 23 25 30 33 34 30 32 29 25 21 28 23 22 21 22 24 23 17 18 12 18 13 12 9
20 21 22 27 29 30 31 26 25 27 26 32 34 33 32 26 28 31 28 24 25 24 23 24 24 24 24 21 15 8 14 11
25 25 24 25 31 32 31 25 25 26 30 27 30 32 34 34 33 30 26 23 24 25 25 26 26 27 24 23 29 32 19 16
29 28 27 28 29 32 33 30 28 26 31 34 35 31 33 37 37 32 28 27 26 24 23 23 25 28 29 35 32 30 23 23

GFSFLT2_925_spd_066.txt.gz
Wind_Speed
20 22 23 29 31 31 34 38 40 40 40 39 39 38 38 36 33 30 29 26 29 29 29 28 27 27 27 27 23 20 20 20
22 23 25 26 28 26 28 34 40 39 39 40 41 41 38 35 33 30 30 29 30 30 30 29 27 26 25 25 26 22 19 18
22 26 26 24 25 25 27 29 31 37 39 40 41 31 34 31 29 32 32 31 30 29 29 28 26 25 25 24 17 17 16 16
21 27 29 29 27 23 28 29 34 37 38 38 32 31 27 27 29 32 33 31 30 28 27 27 22 19 21 15 15 15 16 16
13 21 31 35 28 34 34 33 35 35 38 40 30 27 29 26 29 30 28 29 24 24 25 18 17 17 16 14 16 15 15 16
10 22 25 21 34 34 43 40 35 35 32 29 32 26 27 26 28 29 28 25 23 22 19 15 15 14 14 17 14 14 14 14
6 14 27 31 30 29 38 39 36 34 33 31 29 29 24 25 26 28 27 24 24 21 17 16 15 14 14 13 12 12 13 13
14 16 20 29 34 33 33 35 34 38 38 33 32 36 30 25 24 25 24 24 22 19 18 16 15 14 13 12 12 11 11 11
18 18 17 24 33 37 32 28 33 38 35 31 30 33 31 26 25 23 22 22 21 19 18 16 14 14 13 13 12 11 11 10
23 20 21 26 28 33 29 29 34 35 31 27 28 30 30 27 23 21 20 19 20 20 19 17 15 14 13 12 11 11 11 10
21 21 26 26 29 24 24 30 32 34 29 23 26 30 32 28 24 21 19 19 18 21 18 16 15 14 13 12 11 11 11 10
20 19 27 26 25 23 25 31 35 37 29 24 26 27 29 27 25 21 20 18 20 18 17 14 14 14 13 11 10 10 10 12
18 22 28 24 25 27 27 29 28 36 32 27 24 25 29 26 21 22 23 20 18 17 16 14 11 11 10 8 9 11 13 14
24 23 25 26 25 26 26 26 24 33 37 30 25 23 36 32 22 25 22 19 17 18 17 14 12 14 11 10 5 9 17 18
19 23 27 25 25 21 22 18 23 21 30 33 28 26 34 33 28 24 21 19 19 18 17 17 17 14 16 9 4 5 5 10
19 20 27 27 28 27 28 33 31 28 32 37 27 28 35 35 29 22 21 23 19 16 17 19 18 13 13 20 16 10 5 7
21 21 22 28 32 30 30 28 30 23 25 30 36 28 35 35 33 25 24 23 21 18 16 17 16 17 18 13 17 17 16 14
24 23 24 25 33 33 32 32 29 23 23 28 32 32 35 29 32 30 26 24 18 18 21 24 17 18 18 17 17 12 14 14
25 26 27 27 31 31 34 31 26 25 26 25 30 33 34 40 37 34 33 30 27 27 27 20 19 19 21 22 21 21 21 19
27 29 28 29 31 33 35 33 29 28 30 31 30 34 36 43 40 37 40 32 31 27 27 23 21 22 25 24 24 26 28 26

GFSFLT2_925_spd_069.txt.gz
Wind_Speed
15 17 28 28 27 15 15 33 41 42 42 39 38 37 35 33 31 30 29 29 28 27 25 25 25 27 26 24 17 18 19 19
15 18 17 15 21 18 21 19 40 42 40 40 38 37 38 34 31 29 28 29 28 27 25 24 25 26 25 21 23 20 19 19
18 18 21 20 20 17 26 24 28 36 39 39 38 33 33 33 26 29 29 29 29 28 26 25 24 24 27 23 15 15 16 16
16 18 17 17 20 19 23 28 32 33 33 36 33 30 27 30 28 30 31 30 29 27 26 24 21 19 15 12 10 14 15 16
12 14 19 18 18 19 23 24 29 34 38 38 32 27 26 28 32 31 29 29 23 23 25 18 17 17 10 10 14 12 15 15
7 8 14 18 16 20 23 31 32 33 31 26 30 27 24 25 28 27 28 25 24 22 18 16 16 15 10 13 12 13 15 14
3 13 18 17 18 27 30 33 34 39 39 34 30 28 27 27 27 27 27 26 23 21 16 16 15 14 14 13 12 12 14 14
5 2 12 21 26 21 28 36 32 34 36 35 34 31 24 26 29 29 27 26 23 20 17 17 16 15 14 14 12 13 12 13
9 7 12 16 20 28 32 34 45 38 37 40 34 31 29 23 26 27 28 25 23 19 18 17 16 15 14 14 13 12 12 11
10 12 15 21 18 26 32 31 36 38 41 34 32 30 31 27 21 18 20 19 19 20 20 18 16 15 15 14 13 12 11 11
14 13 13 21 23 25 27 34 29 34 41 32 31 27 26 26 23 22 23 21 21 19 19 17 16 15 14 13 12 12 12 12
16 14 17 19 19 23 23 30 26 34 38 25 25 22 25 24 21 20 22 19 18 18 17 16 15 15 15 14 12 12 13 13
18 19 23 21 23 22 26 25 29 29 35 26 25 26 27 25 22 20 21 17 17 18 17 16 14 14 13 12 11 12 13 14
19 20 25 26 21 20 21 29 30 35 38 33 28 28 28 25 23 22 20 19 20 19 18 15 15 15 14 15 6 11 16 18
19 20 23 25 21 22 21 23 24 27 30 32 24 21 24 27 22 23 27 23 21 21 20 19 20 17 17 7 4 6 14 19
20 21 23 26 23 26 23 30 26 32 34 24 29 22 21 23 24 33 26 23 20 21 20 20 18 17 12 17 16 13 7 3
21 21 22 24 26 26 27 24 27 25 32 27 23 27 25 28 31 29 28 19 20 20 22 21 19 18 17 14 14 15 16 12
24 25 23 24 27 27 30 29 26 27 27 32 28 27 27 26 33 31 28 29 26 24 20 16 19 16 20 18 17 14 14 13
25 27 26 26 29 28 30 29 30 35 27 28 30 28 29 27 33 35 34 30 29 27 26 21 25 20 21 23 19 19 20 19
25 27 27 28 30 31 31 31 31 33 34 29 30 31 34 32 33 35 36 37 30 31 28 32 24 23 22 25 23 22 23 23

GFSFLT2_925_spd_072.txt.gz
Wind_Speed
13 13 17 17 20 23 19 18 23 24 36 39 37 35 33 32 33 30 28 26 26 28 28 27 28 25 21 18 15 28 27 24
13 13 14 18 21 18 17 12 31 38 36 40 37 36 34 32 32 30 27 26 27 27 29 30 29 26 22 20 27 22 22 24
12 13 15 19 24 24 21 12 10 17 44 40 38 36 34 32 31 29 27 27 28 27 29 30 28 25 24 25 20 23 24 21
11 15 14 18 19 23 26 19 5 20 40 42 35 37 34 28 28 29 28 28 27 27 28 29 28 26 22 14 14 22 21 19
11 10 13 13 18 20 28 28 24 31 35 39 37 33 32 30 30 31 30 29 28 27 27 25 29 22 15 10 17 22 21 20
6 7 8 13 16 20 23 29 29 33 38 34 40 36 33 33 30 32 32 29 28 29 26 22 21 15 6 17 13 24 20 20
3 3 6 12 17 22 25 28 33 38 38 37 35 34 30 27 25 33 28 28 26 28 24 24 19 13 16 17 7 24 17 20
4 3 5 10 15 19 25 31 38 44 38 38 37 32 30 27 24 30 24 29 26 23 20 23 20 15 17 13 12 20 18 17
4 3 4 14 15 20 27 34 44 43 41 37 39 35 31 32 28 31 26 27 25 21 23 20 19 18 17 13 13 13 19 21
7 5 7 10 19 24 31 36 40 42 42 44 35 31 29 31 33 29 29 30 27 22 24 21 20 20 19 16 15 13 15 18
11 10 9 18 19 23 31 37 37 39 37 39 34 35 30 34 35 29 27 33 27 25 23 21 20 19 20 18 16 15 16 15
16 13 12 17 19 21 27 30 34 36 33 35 37 36 29 28 27 21 26 25 22 23 21 20 19 17 19 18 15 16 18 17
21 18 16 18 22 23 24 25 30 35 36 36 38 30 32 25 25 22 20 21 19 21 20 17 17 16 14 18 15 14 16 19
23 19 19 20 21 23 20 25 27 36 40 32 32 33 32 28 28 29 26 20 21 18 20 16 14 17 14 16 3 7 18 19
24 23 23 24 22 23 23 23 24 27 31 33 32 29 31 26 26 32 30 26 27 23 22 21 19 19 20 8 3 4 9 17
21 23 25 24 23 23 27 21 24 28 37 32 34 30 29 29 27 31 34 29 26 26 24 25 25 24 22 19 16 6 3 2
23 22 23 22 22 25 27 25 27 28 31 28 26 24 30 29 29 30 33 29 24 24 24 27 28 21 16 15 17 20 20 12
22 23 24 25 24 26 28 28 29 29 31 29 27 29 29 32 29 32 32 31 25 24 23 31 23 17 18 22 22 12 15 13
23 24 23 23 28 26 27 25 29 32 37 35 29 28 28 31 35 29 35 32 28 28 30 22 21 21 22 21 29 23 22 20
26 26 24 27 26 28 28 28 28 28 34 37 36 31 32 31 33 35 34 33 34 31 25 24 24 26 28 26 33 30 27 26

GFSFLT2_925_spd_075.txt.gz
Wind_Speed
8 14 17 19 23 25 30 25 25 26 37 28 28 37 36 34 34 34 29 28 30 36 35 32 28 25 21 21 27 22 23 28
9 10 15 18 20 24 19 22 41 44 10 19 30 37 36 35 34 33 30 28 33 34 33 32 30 23 20 33 27 25 25 28
8 13 14 19 22 21 18 20 18 17 24 23 36 37 38 36 33 31 28 29 33 33 31 32 27 24 34 32 29 25 23 27
12 11 15 18 23 24 22 20 15 22 34 26 32 39 38 36 31 29 29 29 30 31 32 30 27 28 30 21 30 26 24 27
9 11 15 22 27 27 22 21 18 30 17 36 37 40 35 35 32 30 31 31 30 31 31 29 29 26 19 23 28 25 25 27
5 6 9 17 25 25 27 27 22 20 9 46 45 41 37 36 33 33 31 32 33 33 32 30 28 20 17 21 25 22 22 27
8 7 8 14 18 25 26 31 25 23 31 39 43 38 39 38 34 32 31 32 34 34 32 32 24 16 21 24 25 22 22 26
7 6 10 11 18 23 28 29 25 33 33 43 45 42 43 38 36 33 31 33 36 33 35 29 19 17 17 11 25 22 19 25
6 4 8 13 11 16 27 32 37 42 43 38 41 40 41 38 37 37 31 32 34 30 27 24 19 20 20 19 25 21 19 21
8 6 8 12 12 16 26 34 37 41 45 46 44 43 41 39 39 36 32 32 32 26 27 28 25 22 20 19 21 21 21 20
13 9 8 10 14 18 28 35 37 41 47 44 42 40 38 41 38 37 31 33 31 26 32 29 27 25 20 18 18 23 21 22
18 15 14 12 13 16 27 31 35 40 43 42 40 37 38 43 36 39 35 36 33 29 32 29 29 29 26 21 18 17 21 20
20 20 20 18 19 21 25 24 27 35 41 42 42 40 39 39 38 39 34 37 33 37 33 29 30 30 25 22 19 19 19 21
23 22 23 24 22 20 18 25 23 31 35 43 45 39 38 35 32 35 25 32 30 35 31 28 28 28 19 15 2 5 17 23
24 24 24 26 24 22 21 22 23 21 27 33 37 42 36 30 37 33 30 33 29 33 32 27 28 23 23 11 3 4 5 17
25 25 25 24 27 25 26 20 21 23 27 29 32 36 33 30 32 33 40 41 40 32 29 28 28 28 21 18 10 7 3 1
27 28 28 26 25 27 27 20 24 26 27 27 29 33 33 30 31 32 31 31 32 31 29 30 29 27 20 20 18 13 9 4
26 27 26 27 27 29 29 27 23 25 27 27 27 30 29 33 30 30 32 32 32 32 31 29 29 26 22 23 18 9 8 6
27 28 27 27 27 29 29 29 32 30 31 31 28 29 25 34 34 34 35 37 35 34 35 33 30 24 21 28 28 28 20 18
27 28 28 29 30 29 29 28 31 31 34 34 31 31 34 35 34 30 34 33 37 32 34 32 32 27 23 36 38 30 26 24

GFSFLT2_925_spd_078.txt.gz
Wind_Speed
17 19 20 20 24 27 27 30 32 19 14 1 5 23 25 33 33 35 33 32 39 37 37 34 29 27 32 31 28 28 29 28
15 16 19 22 24 26 32 33 33 40 33 23 18 27 24 29 33 33 32 35 40 38 36 32 26 29 32 30 27 27 28 30
16 17 17 19 20 23 32 33 34 30 32 26 14 29 32 32 34 33 31 40 39 36 33 28 24 31 32 29 26 27 29 28
14 16 18 19 20 22 25 29 30 34 27 28 33 35 36 36 35 32 30 42 40 36 32 28 31 37 34 27 25 28 28 28
16 15 16 19 25 25 25 29 29 36 34 39 32 34 37 37 36 32 31 39 38 34 31 29 36 28 29 28 28 27 28 28
15 14 14 22 24 26 28 29 29 34 39 38 34 38 38 37 32 34 35 39 37 35 33 31 28 24 31 29 27 27 29 28
13 13 13 20 25 29 29 28 29 30 35 41 36 39 42 36 33 36 38 39 38 37 34 31 27 23 28 29 27 27 28 28
14 11 12 16 24 30 31 32 28 33 18 28 43 42 43 42 39 38 37 37 39 38 35 30 23 19 29 26 24 26 28 28
13 11 14 16 19 25 29 33 31 29 30 42 45 46 46 44 42 40 37 36 37 36 33 26 21 21 26 25 24 25 26 26
13 10 12 15 16 22 26 32 36 30 38 44 45 46 45 43 42 40 40 38 37 35 36 27 22 22 24 28 26 24 26 25
13 10 11 14 14 17 24 31 35 36 40 40 44 44 44 43 42 42 41 40 37 37 32 28 23 22 21 25 26 25 26 24
14 13 11 14 15 18 24 29 32 39 38 40 46 43 43 43 41 39 44 44 40 35 32 29 28 24 22 26 23 24 24 23
18 17 13 13 17 21 20 21 27 34 36 40 44 42 41 41 41 38 41 44 42 35 33 33 32 28 23 21 21 24 23 23
21 19 17 16 18 18 17 22 24 31 36 37 39 41 41 38 38 39 39 39 39 34 35 30 28 31 17 16 3 7 20 24
24 23 22 18 19 18 18 21 19 20 29 31 35 37 36 33 32 38 36 40 37 35 37 33 25 33 29 13 3 4 4 14
27 25 23 20 21 19 23 15 15 14 26 29 30 33 34 32 32 33 30 33 33 32 36 33 30 28 28 21 14 14 3 1
29 28 26 24 23 23 22 18 16 20 22 25 29 33 33 32 29 30 34 26 32 27 30 29 31 34 27 20 16 14 9 4
28 28 27 26 28 24 23 22 22 22 22 23 26 29 31 28 25 33 35 35 33 27 32 37 33 34 32 31 19 12 8 5
27 27 27 28 27 28 28 27 25 27 25 24 24 25 28 32 26 31 33 34 37 41 44 40 34 33 33 29 28 22 15 14
27 27 25 27 27 29 29 27 27 26 30 27 28 29 32 36 34 30 34 36 39 43 41 35 34 33 33 32 30 24 21 20

GFSFLT2_925_spd_084.txt.gz
Wind_Speed
20 21 22 23 23 24 25 26 30 32 30 28 25 24 25 24 26 22 25 26 28 30 33 34 34 33 32 31 30 29 27 24
21 22 23 23 23 26 27 29 32 32 29 31 29 24 21 24 24 25 28 28 30 32 33 34 32 31 30 29 27 25 25 24
22 23 24 23 24 27 28 28 31 33 36 36 33 29 23 22 22 23 24 28 32 32 33 32 30 28 27 26 25 25 25 25
23 25 26 25 26 28 31 33 37 38 37 33 28 25 35 31 25 24 26 29 33 34 32 29 28 28 27 26 24 24 24 24
26 27 28 27 26 28 32 35 39 38 39 35 33 36 30 31 33 30 27 29 34 34 31 28 29 30 28 25 24 24 24 25
27 28 28 28 28 27 29 31 38 38 37 36 37 33 31 35 34 31 30 35 37 34 32 30 30 30 27 24 24 25 25 27
29 28 29 29 28 28 27 29 34 36 40 41 35 36 35 35 32 35 34 38 41 36 34 33 31 29 26 24 26 26 27 26
30 29 29 28 29 28 28 29 30 30 33 33 34 35 31 35 32 33 39 41 40 36 35 37 33 31 27 25 27 27 27 27
31 30 28 27 28 27 28 28 29 29 30 33 31 33 37 34 33 35 38 41 41 34 31 34 34 31 26 26 25 26 27 26
29 28 27 24 25 24 26 27 28 28 30 35 32 36 40 38 34 35 38 42 41 34 34 35 34 31 28 26 24 23 25 25
29 26 24 22 21 23 25 25 29 27 30 33 38 35 36 39 36 35 40 43 43 40 36 34 32 29 30 26 23 23 25 24
27 24 22 21 20 21 24 25 28 32 29 31 39 40 37 36 34 36 41 41 40 41 38 31 32 32 26 24 21 22 23 24
28 23 20 21 23 21 20 23 27 29 32 31 37 44 34 40 37 38 41 41 40 42 39 32 28 31 28 14 13 15 19 22
26 21 21 21 21 20 16 16 22 27 30 30 33 36 43 39 37 39 41 36 38 38 38 30 24 34 16 14 3 2 14 22
25 23 21 23 19 19 12 18 10 21 26 33 34 35 39 33 37 38 38 38 40 38 38 34 25 32 27 9 3 3 5 12
25 22 20 21 21 20 18 10 9 4 16 27 33 36 34 31 33 36 36 32 32 37 36 32 33 28 27 7 12 13 3 2
23 23 21 20 20 18 16 14 12 15 23 28 32 33 34 29 29 30 33 34 34 39 36 33 34 34 25 20 13 11 10 3
24 24 22 21 20 18 18 16 16 18 20 24 28 30 32 30 29 28 26 30 30 34 37 37 32 33 36 30 23 11 8 5
24 25 22 23 22 19 16 17 17 18 22 20 26 28 28 29 30 30 28 25 30 32 37 38 34 33 32 32 33 30 21 21
24 25 23 24 23 21 18 14 16 19 21 23 22 27 30 33 34 32 31 31 27 31 34 37 31 31 33 30 32 30 31 29

GFSFLT2_925_spd_087.txt.gz
Wind_Speed
18 19 22 22 23 24 27 27 28 28 27 28 26 26 26 28 26 23 20 23 25 26 27 29 30 29 29 29 28 27 22 20
19 20 22 22 22 24 26 28 29 29 30 30 30 29 27 24 23 24 24 25 27 27 28 29 30 29 28 27 27 25 19 19
22 22 23 23 23 26 26 28 29 31 31 31 31 29 27 25 23 22 25 25 28 29 29 30 31 30 28 27 26 17 17 16
25 25 25 24 26 26 27 29 30 33 34 32 32 30 28 25 25 25 27 26 30 30 30 31 28 23 26 25 17 17 16 15
28 27 28 28 29 29 30 31 33 36 35 35 35 34 29 25 30 29 26 27 26 29 31 29 23 23 22 19 19 18 15 14
28 30 30 30 29 29 32 34 36 38 39 40 40 36 31 28 27 31 31 30 29 30 27 24 23 21 22 20 17 16 15 15
28 31 32 32 29 30 31 32 35 37 41 43 43 34 32 29 29 32 33 33 33 33 25 27 24 22 19 20 18 16 16 16
29 32 32 31 31 30 31 32 33 37 38 43 42 37 32 32 27 33 33 34 32 36 27 25 24 23 20 17 17 16 17 17
32 32 32 32 30 28 30 32 35 35 40 43 42 38 35 33 31 32 35 36 36 30 25 22 21 22 19 17 16 17 17 18
30 32 32 30 27 26 28 29 31 33 35 34 38 40 33 33 33 34 37 39 35 32 26 23 22 21 20 18 17 16 17 17
31 32 33 30 25 24 26 27 29 31 31 33 36 35 34 33 36 36 41 41 32 30 25 24 23 20 19 17 15 16 17 17
32 32 30 25 21 21 22 25 27 30 30 29 31 33 32 36 35 39 41 39 31 29 28 22 25 23 18 14 12 13 16 17
29 29 29 26 24 22 24 23 26 28 29 30 30 33 34 34 37 38 36 35 35 33 29 28 21 21 19 12 8 9 13 15
26 27 28 25 21 22 17 20 24 26 29 32 33 35 34 37 39 39 37 30 33 37 33 25 19 25 16 18 5 4 11 14
27 27 24 21 19 20 17 16 13 21 26 25 37 36 39 39 41 37 34 32 36 38 34 29 19 25 21 12 5 5 10 12
24 24 23 19 18 19 18 15 15 14 19 21 34 39 39 40 42 39 35 34 32 36 34 32 25 26 20 10 10 12 6 5
23 21 19 18 21 21 18 14 12 19 14 27 33 32 32 38 38 36 35 34 32 35 34 31 27 26 24 13 8 7 8 3
23 23 20 19 22 20 18 14 12 13 16 23 25 30 30 33 33 33 32 32 36 36 35 32 32 28 27 24 17 11 8 5
24 23 22 20 21 20 18 15 13 13 18 21 27 27 27 28 30 29 28 28 31 31 32 35 34 35 34 30 26 24 17 12
25 25 23 20 20 20 18 16 14 14 18 20 23 28 28 31 29 29 27 23 20 19 27 35 37 33 37 33 30 28 25 20

GFSFLT2_925_spd_093.txt.gz
Wind_Speed
14 15 16 16 18 19 18 18 19 20 24 23 26 25 28 29 29 27 25 25 24 22 24 24 25 23 24 26 21 15 15 17
14 15 16 15 14 19 18 18 19 20 22 20 20 22 24 27 27 27 26 26 25 24 24 27 24 23 25 26 20 14 15 15
15 16 16 15 14 15 18 19 18 20 21 21 22 20 23 26 27 26 23 20 18 17 18 23 25 25 26 26 21 12 14 15
17 16 17 17 15 14 16 16 17 17 17 17 21 19 20 23 24 22 22 20 18 17 15 20 22 23 23 23 17 12 17 14
20 18 19 19 17 16 16 17 17 19 20 19 20 20 19 22 18 24 24 20 20 20 18 20 19 23 22 20 17 15 16 14
20 22 21 21 18 18 17 18 19 19 22 21 19 19 19 21 21 22 24 26 25 29 26 24 23 20 23 21 17 20 15 18
25 23 24 23 21 20 18 19 19 18 20 21 21 20 21 22 22 24 24 27 33 33 34 30 24 22 24 21 19 15 17 23
26 24 26 25 25 23 21 19 23 19 20 21 22 21 22 24 23 22 24 28 30 31 33 36 30 25 23 20 18 15 11 9
25 26 29 28 27 28 23 21 20 21 21 21 22 22 22 23 27 24 23 25 27 31 29 36 33 27 24 22 17 13 15 14
24 26 29 30 27 26 25 23 23 21 23 23 25 25 23 24 28 27 26 27 24 26 28 29 30 29 24 21 17 16 16 15
24 27 27 33 27 25 26 25 24 25 21 21 25 27 24 27 24 27 29 27 25 29 32 30 27 20 22 21 17 17 18 17
23 27 26 28 26 24 23 23 22 24 28 27 26 29 29 26 28 27 30 29 30 30 32 30 26 23 24 19 19 19 17 18
22 26 27 28 26 26 25 24 22 23 24 26 28 29 32 32 30 25 27 33 33 34 32 31 27 23 21 20 12 10 14 16
23 26 28 29 26 26 24 21 20 21 21 25 27 30 31 32 32 28 31 33 36 36 32 28 28 22 23 19 7 4 8 14
24 26 28 28 28 25 22 17 13 17 20 22 26 28 29 33 32 33 37 34 36 38 36 31 26 25 28 20 9 5 14 15
23 24 27 27 30 28 26 18 15 17 18 19 24 27 29 31 34 37 35 36 36 41 36 34 29 27 27 24 20 16 11 6
21 23 27 25 31 27 24 23 20 16 19 18 20 25 31 34 35 38 36 35 36 38 36 34 32 30 27 25 20 14 24 13
20 22 26 26 28 27 23 20 16 16 16 16 19 24 31 29 38 38 37 36 34 40 40 37 29 28 27 24 21 15 13 13
18 22 25 26 27 26 21 18 18 15 15 14 13 21 23 29 35 39 37 36 38 36 35 32 29 28 27 23 17 15 15 13
16 23 25 25 24 21 18 15 14 14 12 12 13 21 25 31 37 38 38 39 38 37 34 30 27 27 25 23 22 19 17 15

GFSFLT2_925_spd_096.txt.gz
Wind_Speed
13 17 16 15 15 15 16 15 16 17 17 19 21 21 21 23 24 23 21 21 21 20 19 20 22 22 21 23 19 14 19 21
12 14 15 16 17 16 15 14 16 16 18 19 18 19 20 22 22 23 21 21 21 18 15 16 19 21 22 23 18 18 18 20
16 16 16 15 13 16 16 15 15 16 18 19 17 18 19 21 22 22 19 17 14 13 11 11 15 17 21 25 18 15 17 20
20 19 19 18 17 14 17 16 17 17 17 19 21 19 17 20 22 22 21 21 20 20 23 13 10 16 20 23 16 18 18 17
21 22 21 21 19 19 16 17 16 16 17 17 17 17 17 19 22 25 23 25 24 23 18 19 16 18 21 22 17 18 18 17
30 25 23 24 20 21 20 20 19 20 20 20 18 20 20 20 20 22 30 30 29 26 19 18 18 20 23 25 18 21 21 16
37 35 27 26 24 22 21 21 22 21 21 23 21 20 20 21 21 24 29 31 30 29 26 25 24 26 25 24 20 20 21 23
42 37 35 30 30 23 27 22 21 24 24 23 24 21 19 22 24 25 26 30 29 28 27 26 29 28 25 25 20 23 21 23
39 38 37 31 30 26 23 26 24 22 21 24 25 24 21 23 24 27 32 30 32 28 32 28 31 26 24 25 24 20 22 23
29 35 35 33 30 28 26 22 26 29 24 21 24 27 24 25 25 24 27 24 24 25 30 27 31 30 28 26 25 20 21 32
28 36 36 36 31 30 29 25 23 24 28 28 24 24 27 26 27 28 27 26 27 28 28 26 36 30 30 26 23 22 23 20
31 32 38 34 28 30 27 26 25 24 25 27 27 26 27 28 28 28 30 27 27 27 25 26 29 29 24 27 24 22 21 20
29 31 34 32 27 27 25 26 24 25 26 23 25 26 27 29 26 28 29 29 33 29 28 30 25 28 25 22 18 25 24 19
22 29 35 31 28 27 23 22 23 22 25 28 28 27 28 30 29 29 29 30 33 29 30 24 23 32 16 17 4 11 20 25
21 23 33 30 26 23 21 23 20 22 23 24 27 27 29 30 32 30 31 28 25 33 33 31 25 27 26 19 4 4 7 12
24 23 23 32 29 26 28 24 19 16 20 21 23 26 29 31 30 32 32 32 34 36 38 39 27 23 28 27 18 18 7 3
28 26 24 32 32 28 29 24 20 16 19 22 23 23 26 29 30 32 33 32 35 35 35 35 34 25 24 24 24 24 26 8
30 26 22 30 29 32 28 26 20 20 23 21 23 24 26 29 30 34 36 35 37 39 35 39 38 30 27 24 25 15 18 16
26 24 20 29 28 28 24 28 23 18 25 23 20 21 25 28 30 33 35 39 37 36 39 39 37 35 31 29 28 24 23 23
19 19 18 25 27 25 23 20 16 15 15 16 19 20 22 28 31 31 36 39 38 36 37 37 39 36 35 32 28 27 20 14

GFSFLT2_925_spd_102.txt.gz
Wind_Speed
29 26 24 23 22 22 22 22 22 22 22 21 20 20 20 20 20 20 20 18 20 19 20 22 21 22 22 17 17 19 20 23
29 26 25 25 23 22 22 22 23 21 21 21 21 21 21 20 20 20 18 18 20 17 18 18 19 22 22 17 17 19 22 25
29 27 26 25 24 24 22 22 23 22 21 20 20 22 22 22 21 21 19 18 17 18 21 21 21 22 22 18 17 19 22 25
29 27 27 25 24 25 25 24 24 24 23 22 23 23 23 23 21 21 19 19 20 22 23 23 23 25 24 20 16 19 22 26
29 27 26 27 26 26 26 27 26 23 25 25 25 24 24 23 22 22 23 22 24 25 25 26 26 26 28 27 21 20 23 25
32 30 28 28 28 28 29 29 29 27 26 28 28 27 26 26 25 26 27 27 26 28 27 27 25 26 26 26 25 22 24 25
35 35 32 31 31 30 31 32 31 30 29 31 31 31 30 28 28 28 30 30 30 29 29 24 27 26 24 25 25 27 29 28
39 38 35 33 34 35 34 33 33 31 31 32 33 33 33 32 31 31 32 32 31 30 30 32 27 23 22 22 24 26 28 30
41 41 39 37 37 37 37 35 32 33 34 34 34 35 36 34 33 33 34 33 32 32 34 33 28 24 22 24 26 27 27 29
42 41 42 42 40 40 39 37 34 34 33 35 35 35 37 35 34 34 33 34 35 36 37 35 30 26 25 25 22 26 27 30
38 42 41 44 41 41 39 39 36 36 34 34 37 36 36 37 35 33 32 33 36 34 33 36 31 28 28 27 30 29 28 29
38 43 44 43 41 40 37 37 35 36 36 36 37 37 36 36 34 33 33 33 32 32 31 31 28 29 24 23 27 32 28 31
35 38 41 37 32 33 32 35 38 32 35 36 35 36 36 36 34 33 33 33 33 32 30 28 25 27 19 15 22 20 24 30
32 38 41 41 38 39 30 34 33 36 34 28 34 35 34 34 33 33 35 33 30 31 31 22 23 27 14 13 2 4 23 24
31 39 41 44 39 31 24 28 21 25 31 35 34 33 31 33 34 33 33 34 32 34 35 28 21 24 26 9 4 3 11 15
28 36 40 40 36 34 35 32 26 27 30 32 37 36 34 32 31 33 32 33 32 33 35 33 27 22 24 26 11 11 7 4
15 30 30 38 41 37 35 28 28 24 27 29 34 34 35 36 36 34 33 34 34 34 34 34 32 27 24 26 21 15 24 13
12 27 31 33 39 36 37 34 29 26 27 27 28 31 33 35 35 35 37 37 35 35 35 36 35 31 32 30 25 19 20 15
7 25 27 31 34 35 38 36 36 34 30 28 27 25 28 31 34 34 34 34 35 35 35 35 36 33 33 31 31 25 31 24
30 7 26 31 31 31 31 32 32 32 35 32 29 28 32 32 33 33 35 35 35 33 33 34 35 35 35 33 32 30 27 27

GFSFLT2_925_spd_105.txt.gz
Wind_Speed
34 32 30 29 27 26 25 25 25 23 24 24 23 22 21 21 20 19 18 18 18 18 21 22 23 24 22 19 18 17 18 19
33 31 29 28 27 26 24 24 24 24 24 24 24 23 22 21 20 19 17 17 17 18 20 21 22 23 21 19 18 17 17 20
32 32 31 30 27 25 23 23 23 24 23 24 24 25 24 22 21 20 18 17 18 18 20 21 22 23 21 19 19 18 18 21
32 31 32 30 29 27 25 24 24 24 25 25 26 26 26 24 22 22 21 19 20 21 22 23 23 25 23 21 21 20 18 20
33 33 32 31 29 29 27 26 26 24 24 24 25 27 27 26 24 25 24 23 23 23 25 25 26 28 27 25 23 22 20 19
35 34 33 31 30 30 29 28 27 26 27 25 27 28 29 29 28 28 28 28 27 28 29 28 27 27 28 24 20 17 18 21
36 37 35 34 33 32 31 31 30 26 25 27 29 30 33 32 32 31 31 31 30 30 29 29 28 28 27 26 22 21 19 19
33 38 38 37 36 34 35 33 32 30 27 28 32 33 34 35 34 33 33 33 32 32 31 30 28 27 27 26 25 24 22 24
39 40 40 39 38 37 37 36 31 33 33 33 35 35 36 36 36 35 35 35 34 33 32 32 29 28 27 24 24 27 25 27
40 44 38 43 41 41 38 38 36 35 34 34 36 36 36 36 36 36 35 35 35 35 35 35 33 32 28 25 24 24 26 26
39 42 44 45 43 41 39 39 38 36 36 36 37 37 37 36 37 36 32 31 35 35 34 34 33 31 30 27 25 25 27 27
43 43 45 46 42 38 35 35 36 36 36 35 37 38 37 36 36 35 32 27 30 32 32 32 30 31 26 25 29 29 27 29
40 38 41 39 34 32 28 29 36 37 37 37 37 37 38 37 36 34 34 31 30 31 28 29 26 27 17 17 22 28 28 30
33 37 41 40 36 37 29 35 33 41 40 40 40 38 39 39 38 35 34 30 30 32 30 21 22 27 14 7 3 4 20 31
19 32 35 40 38 30 23 24 18 21 29 34 39 40 40 40 39 38 35 34 33 33 32 27 20 23 29 7 3 3 3 10
11 27 37 39 38 34 33 33 25 27 35 37 35 39 42 38 39 37 35 34 32 34 33 31 24 19 23 30 12 5 3 2
15 18 34 32 37 36 35 28 29 24 27 32 34 37 39 38 39 36 35 35 34 34 32 32 32 24 24 16 22 13 15 4
21 9 27 32 36 35 34 34 29 26 26 27 29 30 35 38 38 36 36 35 34 35 34 33 32 30 27 28 23 14 13 8
25 16 13 24 29 33 32 29 31 34 33 30 26 26 27 35 38 37 37 36 34 33 33 33 34 32 31 28 29 28 21 26
27 26 20 15 22 24 27 29 31 27 28 26 27 29 29 28 34 35 36 34 34 34 32 34 34 33 33 33 28 30 27 24

GFSFLT2_925_spd_108.txt.gz
Wind_Speed
34 33 32 30 29 28 27 26 25 25 25 25 25 24 24 25 23 21 19 19 16 18 20 21 22 21 19 19 18 18 19 19
29 30 31 30 28 27 27 26 25 25 25 24 24 24 23 24 23 22 20 19 18 20 22 23 23 21 19 18 17 17 17 19
27 26 29 28 26 25 25 26 26 25 25 24 23 24 24 24 25 23 22 20 19 20 22 23 23 21 19 18 18 18 17 18
29 26 27 28 28 26 26 26 27 27 27 26 26 25 25 25 25 24 23 22 21 21 22 23 23 23 21 19 19 19 18 18
24 27 27 28 28 29 28 27 28 28 28 28 28 27 26 26 26 25 24 23 23 23 24 26 26 26 24 23 21 20 20 19
24 26 25 29 29 30 29 27 28 30 29 29 29 28 28 28 28 28 27 27 26 26 28 27 27 27 27 25 23 22 22 22
24 27 30 29 31 32 30 31 31 32 29 29 29 30 31 30 30 30 30 29 29 29 29 29 29 29 27 26 24 21 18 17
27 29 32 32 32 36 35 32 33 34 31 31 30 30 31 31 33 31 32 32 31 31 31 30 29 29 29 27 25 22 19 18
28 29 34 38 36 36 37 35 34 32 32 33 32 29 33 31 33 34 33 33 32 31 31 31 29 28 28 27 26 24 22 22
30 33 34 40 42 41 40 35 31 29 26 27 32 30 33 32 32 35 33 34 32 32 32 31 30 28 29 27 25 25 25 25
36 35 37 38 43 44 42 39 36 35 27 29 33 32 34 33 32 32 31 31 33 33 33 33 32 30 29 27 27 25 25 27
33 35 38 41 40 38 37 37 35 35 34 33 35 35 34 34 35 32 31 29 30 32 33 33 30 30 26 26 26 25 24 25
31 33 34 39 33 33 32 32 35 33 38 40 37 37 36 35 34 35 32 32 29 32 30 30 25 26 18 15 19 25 26 27
26 29 33 38 34 34 34 36 33 38 33 31 39 39 39 36 35 36 37 33 31 29 31 20 21 27 12 6 3 8 26 28
18 23 27 35 36 30 27 25 20 23 26 30 40 39 39 37 38 38 38 35 34 34 33 27 20 23 26 9 2 4 4 12
24 21 23 34 39 33 34 32 26 29 32 37 36 41 42 39 38 39 37 36 34 36 35 33 25 19 22 29 16 7 3 2
26 23 26 31 34 36 37 33 31 28 28 29 33 37 41 41 40 39 38 38 36 36 33 34 32 24 24 15 22 17 13 4
26 25 23 25 34 38 38 37 30 25 28 29 30 32 34 38 39 40 40 37 35 35 35 36 33 30 28 24 20 13 12 10
25 25 21 12 27 30 31 31 29 34 30 27 28 29 29 36 36 36 36 37 36 34 35 34 34 32 31 29 28 25 21 22
27 25 22 18 17 25 26 27 26 25 26 26 27 26 26 27 35 33 34 35 35 35 34 34 33 34 33 32 28 29 27 24

GFSFLT2_925_spd_111.txt.gz
Wind_Speed
28 28 29 28 28 27 26 25 24 24 25 25 25 25 24 24 23 22 21 19 18 17 20 20 20 20 19 18 18 19 16 14
18 25 26 26 26 26 25 25 24 24 24 24 25 24 23 23 22 22 21 19 19 19 21 21 21 20 19 18 18 18 15 15
11 14 19 23 24 25 24 24 25 24 24 23 23 22 23 23 23 23 21 20 19 20 22 22 22 20 19 19 18 15 15 14
10 12 16 20 19 24 24 24 23 24 25 23 23 23 24 22 23 22 21 20 19 21 23 23 22 19 19 19 16 15 14 14
18 18 18 18 18 21 23 24 26 26 25 25 22 22 22 25 21 22 20 21 20 22 23 24 21 20 19 19 17 16 15 15
19 22 21 22 19 20 21 21 25 28 29 30 28 27 25 26 21 23 20 23 20 23 25 24 21 21 19 18 17 16 15 18
21 23 28 26 26 23 21 23 25 29 30 31 32 30 27 27 26 22 22 21 22 24 24 22 20 20 19 19 18 17 16 14
20 24 30 33 34 29 27 27 26 27 31 31 33 31 29 28 28 27 24 25 27 24 25 23 21 20 20 19 18 16 16 16
17 23 28 30 34 36 33 30 30 32 31 29 32 30 29 28 31 29 31 31 29 27 24 23 19 19 19 19 18 17 15 15
30 22 25 30 33 33 39 39 35 29 25 28 32 31 27 30 31 31 31 34 30 27 23 21 19 19 18 17 18 16 16 18
32 30 24 30 32 38 35 40 40 36 29 33 32 31 36 34 33 32 31 33 34 30 23 21 20 18 17 17 18 21 25 21
30 32 30 25 29 32 28 29 31 31 37 34 33 35 35 33 33 35 32 33 33 34 28 24 20 19 17 17 17 25 19 24
21 23 30 24 24 27 28 30 31 32 36 38 33 33 36 36 31 35 34 34 35 34 30 26 19 22 13 12 15 20 22 26
17 16 20 22 27 28 30 32 33 35 35 33 34 36 38 41 36 38 38 33 34 34 32 19 21 26 12 7 4 12 19 22
22 21 20 19 24 27 26 26 27 28 29 33 42 41 38 40 38 35 39 35 34 35 34 29 21 23 26 9 3 5 4 13
26 25 25 23 19 27 31 31 29 33 35 35 37 42 38 40 42 38 36 35 32 36 36 33 24 19 21 26 14 3 4 3
26 27 27 25 22 26 32 34 32 32 32 32 34 37 40 40 45 42 36 35 37 35 34 34 32 24 23 14 24 19 11 6
29 27 26 23 20 27 36 36 33 30 32 30 30 31 35 38 36 41 41 38 36 39 37 36 33 28 26 23 20 11 13 10
29 27 26 22 21 23 36 36 33 32 31 30 29 29 31 37 43 41 39 40 37 36 36 35 35 33 29 28 27 26 21 21
30 27 25 22 19 12 28 31 31 30 29 26 27 28 30 29 37 34 37 36 35 34 32 36 35 35 32 30 28 29 26 24

GFSFLT2_925_spd_114.txt.gz
Wind_Speed
13 18 23 27 26 25 25 24 23 22 24 25 25 24 23 23 21 21 20 19 17 17 18 18 17 16 17 17 17 16 9 10
14 14 18 19 21 24 24 23 23 24 23 24 23 23 22 22 22 21 20 18 16 15 18 18 18 17 17 16 16 15 9 9
13 13 15 18 18 20 23 22 22 23 23 23 22 18 19 20 20 20 20 18 16 15 18 18 18 17 16 16 15 11 10 10
14 13 15 17 17 17 19 19 20 20 20 21 20 19 19 19 20 21 20 18 16 16 17 18 17 14 14 16 13 10 11 11
17 16 14 16 17 17 20 20 21 22 22 22 22 21 19 21 18 19 19 19 15 16 17 17 17 15 15 15 14 12 12 11
14 19 19 19 18 16 17 19 21 23 25 25 24 24 22 22 20 20 20 20 18 19 18 18 18 16 15 16 15 14 12 11
10 16 19 22 23 21 20 23 22 23 22 26 26 23 23 24 23 21 21 20 20 20 19 20 18 17 17 16 16 15 13 12
9 13 19 20 24 26 26 24 25 24 24 25 28 26 25 24 24 24 23 21 21 20 20 20 19 18 18 17 17 16 15 14
10 13 17 21 25 25 25 28 26 25 27 26 29 28 25 24 26 25 25 24 22 21 20 19 18 18 18 18 17 17 17 17
13 12 16 21 24 25 26 27 27 28 25 26 27 35 29 26 26 28 25 25 24 24 22 20 20 19 18 16 16 16 17 17
19 16 15 21 24 26 27 26 27 28 27 28 29 31 33 28 27 27 27 28 27 24 24 23 21 19 17 16 16 17 18 18
22 19 17 17 24 25 26 26 27 29 29 29 31 33 33 32 28 25 29 29 27 27 24 24 22 19 18 17 17 17 17 19
19 21 16 16 20 25 26 28 29 32 32 32 32 32 33 33 30 28 33 35 33 29 25 24 22 19 14 14 14 14 17 21
21 21 20 18 18 23 26 27 30 32 33 33 32 32 32 35 34 33 35 31 31 31 32 22 19 25 13 8 4 12 20 22
23 24 23 23 21 21 25 28 28 29 30 30 33 35 36 39 36 33 34 33 33 33 33 30 23 25 27 13 5 8 9 15
24 25 26 24 23 23 25 29 30 31 30 32 35 37 36 36 36 37 36 35 34 36 33 33 26 21 24 28 23 9 6 4
24 25 27 25 24 25 27 30 31 30 30 31 34 34 38 37 37 37 37 37 37 33 33 33 33 25 26 18 24 22 19 7
27 27 26 27 24 25 29 32 35 31 31 30 31 33 35 39 39 38 39 37 36 38 34 34 32 28 25 26 23 19 19 14
28 28 29 27 27 26 27 33 39 37 33 31 28 29 31 35 38 39 38 38 35 34 33 33 35 32 28 27 24 24 20 22
27 28 29 30 30 28 27 29 34 38 34 31 30 27 30 33 39 38 38 36 35 36 35 34 33 33 31 28 26 24 24 25

GFSFLT2_925_spd_117.txt.gz
Wind_Speed
8 13 19 24 23 22 21 21 22 22 23 23 24 24 23 22 20 18 17 17 16 14 14 13 13 12 13 13 13 13 10 7
11 13 16 17 19 22 21 21 21 21 22 23 23 23 22 21 20 18 18 17 16 14 15 14 13 12 13 13 12 11 10 11
8 13 17 19 18 18 21 20 19 19 20 22 22 17 17 18 18 18 19 18 17 14 16 15 14 13 13 12 12 9 9 6
15 13 16 18 20 18 18 16 18 19 18 19 19 18 18 19 18 20 19 18 17 15 15 16 15 11 12 13 11 13 11 8
13 15 17 18 18 19 19 20 19 20 20 20 20 19 19 20 20 20 18 20 16 15 16 16 16 16 15 13 13 13 10 8
11 16 16 20 21 20 20 23 22 22 23 24 23 22 19 21 21 19 21 20 18 17 17 18 19 17 15 16 15 14 12 10
4 12 16 19 21 19 22 22 24 23 22 25 25 25 22 23 22 23 22 21 22 21 20 20 20 19 14 15 16 14 13 9
6 8 13 17 20 21 22 23 23 25 26 25 27 24 23 23 24 24 24 24 22 20 21 24 20 18 18 17 16 15 15 13
7 9 11 15 19 21 23 22 25 25 26 23 32 26 26 25 25 23 22 22 24 22 20 20 23 20 18 18 17 17 15 14
10 9 11 14 18 20 22 24 24 26 26 26 29 36 28 25 28 27 23 23 22 22 23 21 22 20 19 17 17 17 16 15
14 13 16 16 18 21 23 24 27 27 27 27 30 33 35 30 27 30 27 23 21 25 24 23 23 21 18 18 19 17 18 17
18 16 15 15 16 20 24 25 27 27 28 29 31 34 34 34 28 27 32 26 23 26 25 24 24 20 19 18 18 19 17 17
20 18 16 16 16 17 23 26 28 28 32 30 31 33 33 34 33 32 33 33 31 30 27 26 24 19 18 16 16 19 20 19
21 21 19 17 17 19 20 24 28 30 30 33 34 33 34 36 36 32 33 31 32 32 31 26 24 24 17 12 4 8 19 22
22 23 22 20 18 21 23 26 29 26 32 32 34 36 35 38 38 36 33 31 32 32 32 29 24 23 25 12 5 8 10 22
21 23 24 22 20 20 22 25 26 27 28 31 33 36 38 37 38 38 33 33 32 37 36 34 28 23 25 28 23 12 6 6
25 24 24 23 22 22 23 25 27 30 31 33 35 32 38 37 38 36 35 33 35 34 34 35 33 28 27 25 27 24 19 11
28 27 25 23 22 22 23 26 28 29 30 29 32 34 34 37 38 37 35 34 33 34 35 35 33 31 28 28 23 21 18 12
29 27 28 26 26 24 24 26 28 31 33 34 28 30 33 36 38 37 37 37 36 33 34 35 35 32 26 25 27 24 25 21
30 30 29 27 26 26 26 27 27 30 33 35 36 32 33 32 35 37 38 39 36 34 33 33 34 34 33 31 31 25 22 22

GFSFLT2_925_spd_123.txt.gz
Wind_Speed
7 7 11 17 18 16 15 15 17 16 17 17 18 16 16 16 15 14 13 12 11 9 8 9 9 8 8 9 10 13 12 8
7 7 10 18 20 18 17 17 18 18 19 20 20 18 18 18 17 16 14 13 13 12 10 9 9 9 8 9 10 11 11 10
9 9 8 16 20 21 19 18 19 20 20 21 22 21 21 21 20 17 16 14 14 13 11 11 11 10 10 10 10 10 9 9
10 9 9 10 18 20 22 21 21 22 22 23 24 24 24 24 22 20 17 16 15 13 12 11 13 12 11 12 11 10 6 5
10 12 12 12 15 19 23 25 24 23 23 23 24 24 24 25 24 23 21 19 18 16 14 14 15 14 13 13 12 12 9 7
5 6 10 15 21 20 25 28 26 25 25 24 25 27 25 26 26 26 26 25 23 21 19 17 17 16 13 13 14 11 8 6
3 3 6 11 18 24 21 28 29 29 28 27 27 28 29 28 29 28 28 27 26 25 22 21 20 19 19 17 15 13 11 7
28 26 19 9 10 16 24 24 24 30 31 33 32 31 32 31 32 30 31 29 27 28 26 24 23 22 22 18 19 14 13 11
30 29 28 26 23 18 16 22 31 28 31 35 37 36 34 34 34 34 32 31 27 29 28 25 22 22 22 19 20 18 17 12
28 28 30 31 29 27 22 18 20 28 34 29 38 37 39 38 35 37 31 33 33 33 32 32 28 26 25 23 21 21 19 17
31 30 32 32 32 31 28 26 24 23 29 34 34 35 35 35 36 37 37 33 36 37 36 36 35 32 29 26 28 26 25 23
31 31 32 34 32 31 32 30 27 23 24 32 34 35 32 39 33 33 34 33 30 39 40 38 37 34 32 29 26 27 27 27
32 32 32 32 30 30 32 32 35 37 35 27 31 34 35 44 36 35 39 44 36 35 36 39 32 33 27 26 26 27 29 28
30 30 30 29 28 28 27 29 28 31 33 33 31 30 37 36 31 41 42 44 38 33 37 29 25 36 19 18 4 11 29 32
29 31 30 29 28 31 29 29 31 29 28 29 29 27 27 38 42 50 38 42 37 41 39 35 30 31 32 13 3 5 4 18
29 29 30 30 27 27 28 27 26 27 31 32 34 32 28 25 42 45 48 46 41 43 38 38 34 30 30 37 20 13 4 2
28 29 27 28 30 26 27 29 28 29 34 35 35 35 31 30 25 42 44 48 44 41 41 39 39 34 38 32 27 19 14 3
30 28 28 29 30 28 28 29 29 29 29 34 34 33 32 33 32 27 41 42 43 43 47 43 41 32 29 27 32 24 14 5
27 27 29 29 28 30 29 28 28 30 30 29 33 34 32 28 27 31 28 41 43 42 41 37 28 28 37 28 30 31 28 24
28 28 29 30 30 30 29 28 27 27 29 30 34 35 35 32 34 32 32 33 38 40 40 35 35 49 41 34 34 32 28 25

GFSFLT2_925_spd_126.txt.gz
Wind_Speed
7 7 10 14 14 14 14 15 18 19 21 22 22 21 21 20 19 18 16 14 13 11 11 12 12 11 11 12 13 12 11 12
9 10 10 12 16 17 16 16 18 19 20 21 23 22 22 22 21 20 18 16 15 14 13 13 13 14 14 14 13 12 9 10
12 11 9 11 15 20 19 18 18 20 21 22 22 24 23 24 24 22 20 18 17 16 15 14 14 14 15 15 16 14 13 9
11 11 10 9 12 19 21 20 21 23 24 24 25 26 26 26 26 24 22 21 20 19 17 17 17 16 17 18 17 16 15 11
6 11 11 10 12 15 21 22 23 24 25 27 29 28 27 28 28 27 25 23 22 21 20 20 20 19 18 18 18 19 17 13
5 3 7 11 12 15 17 23 26 26 27 28 30 31 30 31 32 32 30 28 26 25 24 23 22 21 20 19 19 19 20 15
24 18 12 12 8 11 14 21 26 28 28 29 30 32 33 33 33 33 33 32 30 30 28 25 24 23 22 20 22 21 19 14
22 24 22 20 18 18 21 18 16 23 27 32 34 34 35 36 35 34 34 35 34 33 31 28 26 26 26 24 22 21 21 16
25 22 21 21 21 23 19 21 21 16 15 32 39 37 37 37 36 36 37 38 34 33 31 29 28 28 29 29 24 25 24 20
23 23 22 23 22 21 24 22 22 20 19 20 20 37 34 36 39 39 39 38 36 35 34 33 32 30 31 30 28 27 26 26
27 26 27 26 25 26 24 25 26 27 26 24 21 17 30 43 44 40 36 38 35 38 35 36 35 34 32 32 32 30 28 26
29 28 29 30 28 29 30 27 28 30 31 26 25 26 25 39 42 34 36 35 37 39 34 35 35 34 33 32 33 34 29 29
33 34 32 32 30 33 30 29 33 34 34 33 28 26 27 26 23 42 33 35 36 39 32 31 30 30 23 23 29 34 34 32
31 33 34 33 25 27 23 29 23 31 35 32 28 29 28 27 22 21 50 36 35 39 33 26 28 30 19 13 4 11 28 35
29 29 31 28 28 30 29 31 28 22 26 31 28 28 33 32 30 24 26 43 46 44 40 34 24 30 34 12 3 7 5 18
28 28 26 25 27 24 23 23 26 28 28 31 34 30 31 34 32 29 23 25 42 42 42 37 34 28 26 41 26 12 4 3
25 24 24 24 25 25 24 24 25 30 30 29 30 31 29 33 32 30 30 24 25 38 34 31 38 36 31 31 29 17 14 3
29 29 29 28 28 27 25 26 28 29 29 30 29 28 28 24 28 28 23 27 29 27 37 36 38 42 37 40 36 20 10 5
29 30 30 30 29 28 28 26 27 29 29 28 28 29 27 25 22 25 26 26 26 27 29 40 40 37 51 41 30 33 25 20
29 29 29 30 29 29 27 27 25 26 26 27 28 27 27 28 29 29 32 34 34 32 25 29 38 37 33 19 23 30 20 23